Weather in Reshma

Russia / Ivanovo Oblast     57°24′28″N   42°33′24″E
temp.,
°C
wind,
m/s
gust,
m/s
humid.,
%
clouds,
%
prec.,
mm/h
press.,
hPa
HPBL,
m
7 march, sun
sun700:00−15sw239633 0.0 101133
03:00−17ssw339832 0.0 100980
06:00−14s4109561 0.0 1005243
09:00−9s6129080 0.1 1001628
12:00−7s61193100 1.4 997989
15:00−5s51094100 2.6 993909
18:00−5s4995100 1.3 991613
21:00−6nw3790100 2.3 991267
8 march, mon
mon800:00−11nw2388100 0.0 99067
03:00−13wnw2384100 0.0 99168
06:00−14wnw2387100 0.0 99246
09:00−11wnw2488100 0.0 994177
12:00−8wnw2387100 0.0 996325
15:00−6nw3586100 0.0 998699
18:00−9nnw3796100 0.2 1001300
21:00−11n3894100 0.4 1004429
9 march, tue
tue900:00−15nnw369780 0.1 1006109
03:00−18nnw389761 0.1 1008172
06:00−22nnw259855 0.0 101195
09:00−20nnw359536 0.0 1013251
12:00−15nnw349173 0.0 1014440
15:00−14nnw358986 0.1 1015648
18:00−17nnw3794100 0.1 1016254
21:00−22n379799 0.1 1019185
10 march, wed
wed1000:00−26n339824 0.0 102176
03:00−28nnw239812 0.0 102264
06:00−30nnw23980 0.0 102352
09:00−26nnw25950 0.0 1025222
12:00−18nw24850 0.0 1025461
15:00−15wnw36820 0.0 1024622
18:00−18w379321 0.0 1023179
21:00−19wnw399647 0.0 1024245
11 march, thu
thu1100:00−21wnw389611 0.0 1024187
03:00−22wnw38978 0.0 1025165
06:00−22wnw38969 0.0 1025171
09:00−17wnw37925 0.0 1025250
12:00−11w36890 0.0 1025346
15:00−9w36850 0.0 1024443
18:00−14wsw23900 0.0 102420
21:00−17ssw23880 0.0 102443